Weather in Ta'if

Saudi Arabia     21°16′11″N   40°24′57″E
temp.,
°C
wind,
m/s
gust,
m/s
humid.,
%
clouds,
%
prec.,
mm/h
press.,
hPa
HPBL,
m
18 april, sun
sun1800:00+17e711640 0.2 1018502
03:00+15e8128542 0.3 1019563
06:00+15e488298 0.0 1019357
09:00+20se23474 0.1 1018401
12:00+26ssw442533 0.0 10163057
15:00+21nw121148100 2.4 1015835
18:00+15ene6679100 10.1 1020333
21:00+18nne485297 10.2 1020456
19 april, mon
mon1900:00+17e245598 0.0 1019227
03:00+18ese384954 0.0 1017316
06:00+18se48423 0.0 1017253
09:00+22ese44250 0.0 1017619
12:00+26se33180 0.0 10162886
15:00+27ese2217100 0.0 10133506
18:00+25se242363 0.0 10142840
21:00+23ene46255 0.0 1016812
20 april, tue
tue2000:00+22e37310 0.0 1017381
03:00+21ese49290 0.0 1016450
06:00+20e38320 0.0 1016330
09:00+24ese99200 0.0 10171324
12:00+27ese65160 0.0 10152765
15:00+28ene7613100 0.0 10123489
18:00+27ene661646 0.0 10122663
21:00+24ne362299 0.0 1014681
21 april, wed
wed2100:00+23ne572862 0.0 1015500
03:00+22ese482478 0.0 1014481
06:00+20ese4919100 0.0 1015273
09:00+25ese8811100 0.0 10161743
12:00+27e87991 0.0 10142679
15:00+29e77984 0.0 10123475
18:00+27ene77100 0.0 10122007
21:00+25ese24160 0.0 1014573
22 april, thu
thu2200:00+23ne24325 0.0 1014290
03:00+22ne12305 0.0 1013168
06:00+21se24222 0.0 1014194
09:00+26ese57115 0.0 10151657
12:00+29ese76919 0.0 10133474
15:00+29ese45998 0.0 10114203
18:00+27s3520100 0.0 10111682
21:00+25wnw233397 0.0 1013445